KC4BAM Weather Reports


Display with metric or nautical units.
time (UTC)temp
F
wind
direction
speed
MPH
gust
MPH
rain 1hr
in
rain 24hr
in
rain mn
in
humidity
%
barometer
mb
20260905234630 91 193 0.0 0.0 0.00 0.00 0.00 58 1001.4
20260905234126 92 193 0.0 0.0 0.00 0.00 0.00 58 1001.5
20260905233626 93 191 0.0 0.0 0.00 0.00 0.00 57 1001.3
20260905233120 93 189 0.0 1.0 0.00 0.00 0.00 57 1001.4
20260905232615 93 193 0.0 1.0 0.00 0.00 0.00 57 1001.4
20260905232111 94 193 0.0 0.0 0.00 0.00 0.00 57 1001.5
20260905231606 94 189 0.0 1.0 0.00 0.00 0.00 56 1001.4
20260905231102 95 195 0.0 0.0 0.00 0.00 0.00 54 1001.5
20260905230602 95 193 0.0 0.0 0.00 0.00 0.00 55 1001.4
20260905225600 95 189 0.0 0.0 0.00 0.00 0.00 54 1001.4
20260905225055 96 201 1.0 1.0 0.00 0.00 0.00 53 1001.3
20260905224555 97 194 0.0 1.0 0.00 0.00 0.00 53 1001.3
20260905224055 97 196 1.0 3.0 0.00 0.00 0.00 52 1001.3
20260905223553 96 225 4.0 6.0 0.00 0.00 0.00 53 1001.4
20260905223048 96 198 0.0 1.0 0.00 0.00 0.00 53 1001.3
20260905222542 97 190 0.0 0.0 0.00 0.00 0.00 52 1001.2
20260905222038 97 191 0.0 0.0 0.00 0.00 0.00 52 1001.0
20260905221534 98 195 0.0 1.0 0.00 0.00 0.00 51 1001.4
20260905221030 98 197 1.0 8.0 0.00 0.00 0.00 49 1001.3
20260905220525 99 219 2.0 3.0 0.00 0.00 0.00 50 1001.4
20260905220021 98 236 1.0 3.0 0.00 0.00 0.00 48 1001.4
20260905215515 98 195 0.0 1.0 0.00 0.00 0.00 51 1001.3
20260905215012 99 193 0.0 1.0 0.00 0.00 0.00 48 1001.3
20260905214508 100 197 0.0 4.0 0.00 0.00 0.00 46 1001.4
20260905214008 100 212 2.0 6.0 0.00 0.00 0.00 46 1001.3
20260905213504 101 188 1.0 2.0 0.00 0.00 0.00 46 1001.5
20260905213004 102 197 0.0 2.0 0.00 0.00 0.00 44 1001.5
20260905212459 101 207 2.0 4.0 0.00 0.00 0.00 44 1001.4
20260905211958 102 192 0.0 1.0 0.00 0.00 0.00 46 1001.4
20260905211453 101 206 2.0 4.0 0.00 0.00 0.00 43 1001.4
20260905210949 102 200 1.0 1.0 0.00 0.00 0.00 45 1001.5
20260905210444 101 192 1.0 2.0 0.00 0.00 0.00 45 1001.7
20260905205944 102 195 0.0 1.0 0.00 0.00 0.00 44 1001.6
20260905205439 102 222 2.0 3.0 0.00 0.00 0.00 43 1001.5
20260905204937 101 194 2.0 4.0 0.00 0.00 0.00 43 1001.6
20260905204433 102 211 4.0 6.0 0.00 0.00 0.00 44 1001.8
20260905203932 102 209 1.0 3.0 0.00 0.00 0.00 44 1001.8
20260905203428 102 198 2.0 6.0 0.00 0.00 0.00 44 1002.0
20260905202923 102 199 2.0 3.0 0.00 0.00 0.00 44 1002.0
20260905202419 102 202 1.0 2.0 0.00 0.00 0.00 43 1002.2
20260905201914 100 234 2.0 3.0 0.00 0.00 0.00 45 1002.3
20260905201409 101 201 1.0 1.0 0.00 0.00 0.00 47 1002.4
20260905200904 101 205 4.0 4.0 0.00 0.00 0.00 44 1002.6
20260905200400 101 245 2.0 4.0 0.00 0.00 0.00 45 1002.4
20260905195857 101 217 5.0 7.0 0.00 0.00 0.00 45 1002.7
20260905195353 100 227 2.0 7.0 0.00 0.00 0.00 45 1002.7
20260905194849 100 175 4.0 6.0 0.00 0.00 0.00 45 1002.7
20260905194348 100 228 4.0 4.0 0.00 0.00 0.00 45 1002.6
20260905193847 100 199 4.0 10.0 0.00 0.00 0.00 46 1002.7
20260905193342 102 198 5.0 6.0 0.00 0.00 0.00 45 1002.7
20260905192838 101 200 2.0 4.0 0.00 0.00 0.00 45 1002.8
20260905192334 102 214 3.0 4.0 0.00 0.00 0.00 45 1002.8
20260905191833 102 200 2.0 4.0 0.00 0.00 0.00 44 1003.1
20260905191332 100 194 0.0 1.0 0.00 0.00 0.00 47 1003.2
20260905190831 101 197 0.0 2.0 0.00 0.00 0.00 47 1003.2
20260905190325 99 197 1.0 2.0 0.00 0.00 0.00 47 1003.3
20260905185823 97 197 1.0 4.0 0.00 0.00 0.00 50 1003.2
20260905185319 96 197 0.0 1.0 0.00 0.00 0.00 54 1003.2
20260905184812 97 204 1.0 2.0 0.00 0.00 0.00 51 1003.4
20260905184311 97 198 0.0 1.0 0.00 0.00 0.00 48 1003.3
20260905183810 98 196 2.0 4.0 0.00 0.00 0.00 47 1003.5
20260905183306 100 191 0.0 1.0 0.00 0.00 0.00 47 1003.4
20260905182800 98 192 0.0 2.0 0.00 0.00 0.00 48 1003.6
20260905182300 98 160 1.0 2.0 0.00 0.00 0.00 49 1003.6
20260905181755 98 187 0.0 3.0 0.00 0.00 0.00 49 1003.7
20260905181254 97 192 0.0 0.0 0.00 0.00 0.00 51 1003.8
20260905180749 96 194 0.0 0.0 0.00 0.00 0.00 51 1004.0
20260905180244 98 191 0.0 1.0 0.00 0.00 0.00 50 1004.1
20260905175744 99 195 0.0 0.0 0.00 0.00 0.00 48 1004.1
20260905175239 99 196 0.0 1.0 0.00 0.00 0.00 46 1004.1
20260905174734 99 196 1.0 1.0 0.00 0.00 0.00 47 1004.2
20260905174230 99 198 0.0 1.0 0.00 0.00 0.00 47 1004.2
20260905173726 100 198 0.0 2.0 0.00 0.00 0.00 47 1004.1
20260905173221 100 197 2.0 4.0 0.00 0.00 0.00 47 1004.1
20260905172721 99 192 0.0 1.0 0.00 0.00 0.00 49 1004.0
20260905172215 99 201 1.0 2.0 0.00 0.00 0.00 50 1004.1
20260905171711 98 191 0.0 1.0 0.00 0.00 0.00 50 1004.2
20260905171207 98 209 1.0 3.0 0.00 0.00 0.00 48 1004.4
20260905170704 99 198 0.0 2.0 0.00 0.00 0.00 50 1004.6
20260905170203 99 225 3.0 3.0 0.00 0.00 0.00 49 1004.5
20260905165658 98 194 2.0 3.0 0.00 0.00 0.00 50 1004.5
20260905165153 98 198 1.0 2.0 0.00 0.00 0.00 49 1004.6
20260905164648 98 194 0.0 1.0 0.00 0.00 0.00 51 1004.7
20260905164147 98 186 0.0 1.0 0.00 0.00 0.00 51 1004.8
20260905163643 97 190 1.0 3.0 0.00 0.00 0.00 50 1004.7
20260905163140 97 198 2.0 3.0 0.00 0.00 0.00 51 1004.8
20260905162636 97 214 1.0 2.0 0.00 0.00 0.00 53 1004.7
20260905162135 96 193 2.0 7.0 0.00 0.00 0.00 52 1004.9
20260905161634 98 189 1.0 3.0 0.00 0.00 0.00 50 1004.8
20260905161132 97 217 2.0 7.0 0.00 0.00 0.00 52 1004.8
20260905160626 97 196 0.0 1.0 0.00 0.00 0.00 54 1004.9
20260905160121 98 201 1.0 4.0 0.00 0.00 0.00 55 1004.8
20260905155615 98 192 1.0 2.0 0.00 0.00 0.00 53 1004.7
20260905155114 97 198 1.0 2.0 0.00 0.00 0.00 54 1005.0
20260905154608 95 182 0.0 0.0 0.00 0.00 0.00 56 1005.0
20260905154104 95 204 1.0 1.0 0.00 0.00 0.00 58 1005.1
20260905153600 95 194 1.0 1.0 0.00 0.00 0.00 57 1005.1
20260905153100 96 193 0.0 1.0 0.00 0.00 0.00 58 1005.1
20260905152555 95 195 0.0 1.0 0.00 0.00 0.00 58 1005.2
20260905152050 95 191 0.0 0.0 0.00 0.00 0.00 59 1005.4
20260905151545 95 200 1.0 1.0 0.00 0.00 0.00 60 1005.4
20260905151040 94 193 0.0 1.0 0.00 0.00 0.00 61 1005.3
20260905150535 94 193 0.0 1.0 0.00 0.00 0.00 61 1005.3
20260905150033 93 193 0.0 1.0 0.00 0.00 0.00 61 1005.5
20260905145526 93 189 0.0 0.0 0.00 0.00 0.00 62 1005.4
20260905145021 93 196 0.0 0.0 0.00 0.00 0.00 63 1005.4
20260905144516 93 194 1.0 2.0 0.00 0.00 0.00 63 1005.5
20260905144015 92 192 0.0 1.0 0.00 0.00 0.00 66 1005.4
20260905143514 93 177 0.0 0.0 0.00 0.00 0.00 66 1005.6
20260905143009 92 192 0.0 0.0 0.00 0.00 0.00 67 1005.4
20260905142508 91 185 0.0 0.0 0.00 0.00 0.00 69 1005.5
20260905142004 90 188 0.0 0.0 0.00 0.00 0.00 71 1005.5
20260905141503 90 189 0.0 0.0 0.00 0.00 0.00 73 1005.5
20260905141000 88 191 0.0 0.0 0.00 0.00 0.00 75 1005.3
20260905140454 88 190 0.0 0.0 0.00 0.00 0.00 75 1005.5
20260905135953 87 191 0.0 0.0 0.00 0.00 0.00 76 1005.7
20260905135449 87 194 0.0 0.0 0.00 0.00 0.00 76 1005.7
20260905134944 88 188 0.0 0.0 0.00 0.00 0.00 77 1005.5
20260905134443 88 187 0.0 0.0 0.00 0.00 0.00 76 1005.5
20260905133942 86 187 0.0 0.0 0.00 0.00 0.00 80 1005.4
20260905133437 85 186 0.0 0.0 0.00 0.00 0.00 82 1005.7
20260905132932 84 193 0.0 0.0 0.00 0.00 0.00 84 1005.7
20260905132427 84 193 0.0 0.0 0.00 0.00 0.00 86 1005.8
20260905131922 83 193 0.0 0.0 0.00 0.00 0.00 88 1005.6
20260905131418 83 192 0.0 0.0 0.00 0.00 0.00 89 1005.7
20260905130913 82 193 0.0 0.0 0.00 0.00 0.00 91 1005.4
20260905130412 81 193 0.0 0.0 0.00 0.00 0.00 92 1005.3
20260905125907 80 193 0.0 0.0 0.00 0.00 0.00 93 1005.5
20260905125407 79 193 0.0 0.0 0.00 0.00 0.00 94 1005.6
20260905124902 78 194 0.0 0.0 0.00 0.00 0.00 94 1005.6
20260905124359 78 194 0.0 0.0 0.00 0.00 0.00 94 1005.7
20260905123858 78 193 0.0 0.0 0.00 0.00 0.00 95 1005.6
20260905123355 77 193 0.0 0.0 0.00 0.00 0.00 95 1005.6
20260905122850 76 193 0.0 0.0 0.00 0.00 0.00 95 1005.6
20260905122349 76 194 0.0 0.0 0.00 0.00 0.00 95 1005.4
20260905121845 75 194 0.0 0.0 0.00 0.00 0.00 95 1005.4
20260905121341 75 194 0.0 0.0 0.00 0.00 0.00 95 1005.3
20260905120839 76 194 0.0 0.0 0.00 0.00 0.00 95 1005.4
20260905120334 75 194 0.0 0.0 0.00 0.00 0.00 96 1005.3
20260905115830 75 193 0.0 0.0 0.00 0.00 0.00 96 1005.3
20260905115329 75 193 0.0 0.0 0.00 0.00 0.00 96 1005.3
20260905114829 75 193 0.0 0.0 0.00 0.00 0.00 96 1005.1
20260905114328 75 192 0.0 0.0 0.00 0.00 0.00 95 1005.0
20260905113822 75 192 0.0 0.0 0.00 0.00 0.00 96 1005.1
20260905113318 75 192 0.0 0.0 0.00 0.00 0.00 95 1005.0
20260905112813 75 192 0.0 0.0 0.00 0.00 0.00 95 1004.8
20260905112308 75 193 0.0 0.0 0.00 0.00 0.00 95 1005.0
20260905111803 75 192 0.0 0.0 0.00 0.00 0.00 95 1005.1
20260905111303 75 193 0.0 0.0 0.00 0.00 0.00 95 1004.9
20260905110803 75 193 0.0 0.0 0.00 0.00 0.00 95 1004.7
20260905110302 75 193 0.0 0.0 0.00 0.00 0.00 95 1004.7
20260905105758 75 193 0.0 0.0 0.00 0.00 0.00 95 1004.7
20260905105256 75 193 0.0 0.0 0.00 0.00 0.00 95 1004.7
20260905104751 75 193 0.0 0.0 0.00 0.00 0.00 95 1004.5
20260905104248 75 193 0.0 0.0 0.00 0.00 0.00 95 1004.6
20260905103747 75 193 0.0 0.0 0.00 0.00 0.00 95 1004.8
20260905103243 75 194 0.0 0.0 0.00 0.00 0.00 95 1004.7
20260905102738 75 195 0.0 0.0 0.00 0.00 0.00 94 1004.6
20260905102235 75 198 0.0 0.0 0.00 0.00 0.00 94 1004.6
20260905101734 75 191 0.0 0.0 0.00 0.00 0.00 94 1004.6
20260905101232 75 191 0.0 0.0 0.00 0.00 0.00 94 1004.4
20260905100728 75 191 0.0 0.0 0.00 0.00 0.00 94 1004.4
20260905100224 76 191 0.0 0.0 0.00 0.00 0.00 94 1004.4
20260905095723 76 191 0.0 0.0 0.00 0.00 0.00 94 1004.5
20260905095217 76 191 0.0 0.0 0.00 0.00 0.00 94 1004.3
20260905094713 76 192 0.0 0.0 0.00 0.00 0.00 94 1004.4
20260905094213 76 191 0.0 0.0 0.00 0.00 0.00 94 1004.4
20260905093707 75 191 0.0 0.0 0.00 0.00 0.00 94 1004.2
20260905093203 76 191 0.0 0.0 0.00 0.00 0.00 94 1004.1
20260905092658 76 191 0.0 0.0 0.00 0.00 0.00 93 1004.1
20260905092154 76 192 0.0 0.0 0.00 0.00 0.00 93 1004.1
20260905091653 76 192 0.0 0.0 0.00 0.00 0.00 93 1004.3
20260905091153 76 192 0.0 0.0 0.00 0.00 0.00 93 1004.0
20260905090647 76 192 0.0 0.0 0.00 0.00 0.00 93 1004.1
20260905090143 76 192 0.0 0.0 0.00 0.00 0.00 93 1004.1
20260905085642 76 193 0.0 0.0 0.00 0.00 0.00 92 1004.1
20260905085137 76 193 0.0 0.0 0.00 0.00 0.00 92 1004.0
20260905084636 76 192 0.0 0.0 0.00 0.00 0.00 92 1004.1
20260905084131 76 191 0.0 0.0 0.00 0.00 0.00 92 1004.2
20260905083626 76 192 0.0 0.0 0.00 0.00 0.00 92 1004.2
20260905083123 76 191 0.0 0.0 0.00 0.00 0.00 92 1004.2
20260905082618 77 193 0.0 0.0 0.00 0.00 0.00 92 1004.2
20260905082114 77 193 0.0 0.0 0.00 0.00 0.00 92 1004.2
20260905081614 77 193 0.0 0.0 0.00 0.00 0.00 92 1004.2
20260905081109 77 193 0.0 0.0 0.00 0.00 0.00 91 1004.1
20260905080608 76 193 0.0 0.0 0.00 0.00 0.00 91 1004.3
20260905080057 76 192 0.0 0.0 0.00 0.00 0.00 91 1004.2
20260905075550 77 192 0.0 0.0 0.00 0.00 0.00 91 1004.3
20260905075044 77 192 0.0 0.0 0.00 0.00 0.00 91 1004.3
20260905074544 77 192 0.0 0.0 0.00 0.00 0.00 90 1004.2
20260905074040 77 192 0.0 0.0 0.00 0.00 0.00 90 1004.2
20260905073535 77 192 0.0 0.0 0.00 0.00 0.00 90 1004.2
20260905073031 78 192 0.0 0.0 0.00 0.00 0.00 90 1004.3
20260905072530 78 192 0.0 0.0 0.00 0.00 0.00 89 1004.2
20260905072026 78 191 0.0 0.0 0.00 0.00 0.00 89 1004.4
20260905071523 78 190 0.0 0.0 0.00 0.00 0.00 89 1004.4
20260905071022 78 190 0.0 0.0 0.00 0.00 0.00 89 1004.4
20260905070518 78 189 0.0 0.0 0.00 0.00 0.00 89 1004.4
20260905070014 78 188 0.0 0.0 0.00 0.00 0.00 89 1004.4
20260905065511 78 191 0.0 0.0 0.00 0.00 0.00 89 1004.6
20260905065007 78 192 0.0 0.0 0.00 0.00 0.00 89 1004.5
20260905064501 78 192 0.0 0.0 0.00 0.00 0.00 89 1004.4
20260905063956 78 191 0.0 0.0 0.00 0.00 0.00 89 1004.5
20260905063450 78 192 0.0 0.0 0.00 0.00 0.00 89 1004.7
20260905062947 78 191 0.0 0.0 0.00 0.00 0.00 89 1004.6
20260905062441 78 192 0.0 0.0 0.00 0.00 0.00 88 1004.7
20260905061936 78 192 0.0 0.0 0.00 0.00 0.00 88 1004.6
20260905061431 78 192 0.0 0.0 0.00 0.00 0.00 88 1004.7
20260905060930 78 192 0.0 0.0 0.00 0.00 0.00 87 1004.3
20260905060427 78 192 0.0 0.0 0.00 0.00 0.00 87 1004.5
20260905055926 78 192 0.0 0.0 0.00 0.00 0.00 87 1004.4
20260905055421 79 192 0.0 0.0 0.00 0.00 0.00 86 1004.5
20260905054920 78 192 0.0 0.0 0.00 0.00 0.00 86 1004.3
20260905054416 79 193 0.0 0.0 0.00 0.00 0.00 86 1004.4
20260905053915 79 193 0.0 0.0 0.00 0.00 0.00 85 1004.6
20260905053410 79 193 0.0 0.0 0.00 0.00 0.00 85 1004.6
20260905052906 79 193 0.0 0.0 0.00 0.00 0.00 84 1004.7
20260905052406 80 193 0.0 0.0 0.00 0.00 0.00 84 1004.7
20260905051905 80 192 0.0 0.0 0.00 0.00 0.00 84 1004.7
20260905051401 80 191 0.0 0.0 0.00 0.00 0.00 83 1004.6
20260905050858 80 193 0.0 0.0 0.00 0.00 0.00 82 1004.8
20260905050354 80 190 0.0 0.0 0.00 0.00 0.00 82 1004.7
20260905045849 80 190 0.0 0.0 0.00 0.00 0.00 82 1004.7
20260905045344 81 192 0.0 0.0 0.00 0.00 0.00 81 1004.6
20260905044839 81 192 0.0 0.0 0.00 0.00 0.00 80 1004.5
20260905044335 82 194 0.0 1.0 0.00 0.00 0.00 78 1004.6
20260905043833 83 189 0.0 1.0 0.00 0.00 0.00 77 1004.6
20260905043328 83 192 0.0 1.0 0.00 0.00 0.00 77 1004.5
20260905042822 83 197 0.0 0.0 0.00 0.00 0.00 77 1004.9
20260905042317 84 196 0.0 0.0 0.00 0.00 0.00 76 1004.6
20260905041812 84 203 1.0 1.0 0.00 0.00 0.00 76 1004.6
20260905041308 82 209 1.0 2.0 0.00 0.00 0.00 79 1004.7
20260905040803 81 197 0.0 0.0 0.00 0.00 0.00 81 1004.7
20260905040302 81 193 0.0 0.0 0.00 0.00 0.00 81 1004.8
20260905035756 81 194 0.0 0.0 0.00 0.00 0.00 80 1004.8
20260905035252 82 194 0.0 0.0 0.00 0.00 0.00 79 1004.8
20260905034749 82 195 0.0 0.0 0.00 0.00 0.00 78 1004.8
20260905034249 83 192 0.0 0.0 0.00 0.00 0.00 77 1004.9
20260905033747 84 192 0.0 0.0 0.00 0.00 0.00 76 1004.9
20260905033243 84 190 0.0 0.0 0.00 0.00 0.00 76 1005.0
20260905032742 83 202 0.0 0.0 0.00 0.00 0.00 77 1005.0
20260905032238 82 193 0.0 0.0 0.00 0.00 0.00 79 1005.0
20260905031733 82 192 0.0 0.0 0.00 0.00 0.00 79 1004.9
20260905031229 82 192 0.0 0.0 0.00 0.00 0.00 79 1005.1
20260905030724 82 191 0.0 0.0 0.00 0.00 0.00 79 1005.2
20260905030218 82 191 0.0 0.0 0.00 0.00 0.00 79 1005.3
20260905025713 82 191 0.0 0.0 0.00 0.00 0.00 78 1005.1
20260905025209 82 193 0.0 0.0 0.00 0.00 0.00 78 1005.1
20260905024705 83 193 0.0 0.0 0.00 0.00 0.00 77 1005.1
20260905024200 84 196 0.0 0.0 0.00 0.00 0.00 76 1005.2
20260905023654 84 193 0.0 0.0 0.00 0.00 0.00 75 1005.1
20260905023149 84 193 0.0 0.0 0.00 0.00 0.00 74 1005.2
20260905022648 84 193 0.0 0.0 0.00 0.00 0.00 73 1005.0
20260905022144 85 193 0.0 0.0 0.00 0.00 0.00 73 1005.0
20260905021643 87 191 0.0 0.0 0.00 0.00 0.00 69 1005.0
20260905021139 88 193 0.0 0.0 0.00 0.00 0.00 68 1005.1
20260905020634 89 196 0.0 1.0 0.00 0.00 0.00 66 1005.0
20260905020129 88 195 1.0 2.0 0.00 0.00 0.00 65 1004.9
20260905015627 89 193 0.0 1.0 0.00 0.00 0.00 65 1005.0
20260905015121 89 206 1.0 2.0 0.00 0.00 0.00 65 1004.9
20260905014615 87 193 1.0 2.0 0.00 0.00 0.00 67 1004.8
20260905014111 87 199 0.0 0.0 0.00 0.00 0.00 70 1004.9
20260905013608 87 188 1.0 3.0 0.00 0.00 0.00 68 1005.0
20260905013103 86 207 2.0 3.0 0.00 0.00 0.00 70 1004.9
20260905012603 86 197 0.0 0.0 0.00 0.00 0.00 71 1004.8
20260905012100 85 196 0.0 1.0 0.00 0.00 0.00 71 1004.7
20260905011555 86 192 0.0 0.0 0.00 0.00 0.00 71 1004.5
20260905011050 86 192 0.0 0.0 0.00 0.00 0.00 69 1004.6
20260905010550 86 192 0.0 0.0 0.00 0.00 0.00 68 1004.5
20260905010047 87 192 0.0 0.0 0.00 0.00 0.00 68 1004.4
20260905005542 87 194 0.0 0.0 0.00 0.00 0.00 68 1004.4
20260905005037 87 193 0.0 0.0 0.00 0.00 0.00 67 1004.4
20260905004532 87 190 0.0 0.0 0.00 0.00 0.00 67 1004.3
20260905004027 87 191 0.0 0.0 0.00 0.00 0.00 67 1004.3
20260905003524 87 189 0.0 0.0 0.00 0.00 0.00 67 1004.2
20260905003019 87 189 0.0 0.0 0.00 0.00 0.00 66 1004.2
20260905002514 87 191 0.0 0.0 0.00 0.00 0.00 65 1004.2
20260905002014 87 189 0.0 0.0 0.00 0.00 0.00 64 1004.2
20260905001509 89 197 1.0 1.0 0.00 0.00 0.00 64 1004.3
20260905001003 90 191 0.0 0.0 0.00 0.00 0.00 60 1004.3
20260905000459 91 191 0.0 0.0 0.00 0.00 0.00 58 1004.2
20260904235954 91 191 0.0 0.0 0.00 0.00 0.00 57 1004.2
20260904235449 92 191 0.0 0.0 0.00 0.00 0.00 55 1004.1
20260904234943 92 191 0.0 0.0 0.00 0.00 0.00 55 1004.3